Weather in Elvg

Russia / Republic of Kalmykia     46°20′32″N   44°53′54″E
temp.,
°C
wind,
m/s
gust,
m/s
humid.,
%
clouds,
%
prec.,
mm/h
press.,
hPa
HPBL,
m
23 september, thu
thu2300:00+15n5673100 1.2 1013475
03:00+13n6876100 1.8 1013452
06:00+12n5877100 0.4 1013429
09:00+13n567493 0.4 1013437
12:00+15nne5666100 0.0 1012724
15:00+15n4561100 0.0 1011684
18:00+15n3463100 0.0 1012412
21:00+14nne2375100 0.0 1012237
24 september, fri
fri2400:00+13n2576100 0.0 1012279
03:00+12nne5978100 0.3 1011523
06:00+12n4776100 0.2 1011466
09:00+12nw5783100 2.6 1011557
12:00+12wnw5781100 1.4 1012543
15:00+17wnw675199 1.6 10111171
18:00+15w4761100 0.0 1012195
21:00+13wsw410730 0.0 1013246
25 september, sat
sat2500:00+12wsw510741 0.0 1013264
03:00+11wsw4874100 0.0 1013168
06:00+12sw4669100 0.0 1012156
09:00+15ssw4455100 0.0 1012556
12:00+18ssw7945100 0.0 10111335
15:00+13w71177100 0.5 1013651
18:00+14w510745 0.1 1014693
21:00+13sw6117473 0.8 1014458
26 september, sun
sun2600:00+12w613765 0.2 1015471
03:00+11w713845 0.2 1016459
06:00+10w713865 0.0 1017487
09:00+13w71265100 0.0 1017925
12:00+16w81354100 0.0 10161792
15:00+13w71378100 0.1 1016972
18:00+14wsw9167599 0.3 1014946
21:00+15w10167986 1.4 1013781
27 september, mon
mon2700:00+15w8147992 0.4 1012511
03:00+14w712785 1.4 1011438
06:00+12wnw712815 0.0 1012531
09:00+14wnw810642 0.0 1014936
12:00+16wnw8104421 0.0 10141980
15:00+16nw8104586 0.0 10151769
18:00+15nw795246 0.0 10171241
21:00+12nw49685 0.0 1018362